Вернуться в каталог

COSMOS 2491 DEB

LostPO
NORAD 44993·DEBRIS·🇷🇺 Russia

Запущен Dec 25, 2013 с Plesetsk Cosmodrome

Loading…

Ближайшие Пролёты (ближайшие 24 часа)

TLE

УстаревшееSource: Space-Track

Эпоха: Feb 13, 2020, 14:43 UTC

1 44993U 13076P   20044.61324866  .00013394  00000-0  12707+0 0  9998
2 44993  82.4254 174.1862 0135838 199.0922 160.5025 12.19093823  4488

Отслеживайте COSMOS 2491 DEB в реальном времени с AllMySat

Download on the App Store